星链-2253 (STARLINK-2253 )

导读

STARLINK-2253是美国太空探索技术公司(SpaceX)于2021年5月15日发射的星链(Starlink)第一代低轨通信卫星,归属SpaceX星链星座组网项目。 该卫星运行于近地轨道,配备氪离子推进系统,支持卫星轨道维持与机动避碰,依托相控阵天线为全球提供低延迟卫星互联网接入服务,属于星链第一代V1.0批次卫星,设计寿命约5年,助力星链完成全球互联网覆盖的组网目标。

Basic Information
目录编号:
48596
目录名称:
STARLINK-2253
国际标识:
2021-041AV
轨道中心:
EARTH
卫星名称:
星链-2253
卫星全名:
星链-2253 (STARLINK-2253 )
卫星状态:
在轨 (已飞行1938 天)
发射日期:
2021-05-15 UTC
国别 :
美国 (US)
星等 :
--
Orbit Information
数据来源 国际轨道数据 AOE轨道数据
星历时间 2026-09-04T03:27:07+0800
10小时前
查看轨道信息
2026-09-02T17:00:00+0800
1天前
查看轨道信息
半长轴 6848.848km 6848.901km
偏心率 0.0000935 0.0000796
轨道倾角 53.162° 53.160°
近地点辐角 75.982° 52.604°
升交点赤经 30.634° 37.319°
平近点角 284.129° 307.572°
近地点 470.07km 470.218km
远地点 471.352km 471.31km
周期 94.013分钟 94.014分钟
每日圈数 15.3171 15.316921
Detailed Information
固有亮度:
5
最大亮度:
2.5
卫星平台:
Starlink V1.0
覆盖范围:
全球
运营商:
太空探索技术公司
运营商所在国:
美国
制造商(研发单位):
太空探索技术公司
制造商所在国:
美国
使用方式:
暂无
Satellite Introduction
星链(Starlink)计划是由太空探索技术公司(SpaceX)提出的一个巨型低轨卫星互联网星座项目,计划在2019年至2024年间在太空搭建由约1.2万颗卫星组成的“星链”网络,其中1584颗将部署在地球上空550千米处的近地轨道,并从2020年开始工作。该卫星仍在工作。
2D Orbit Map
3D Orbit Map
Orbit Altitude Analysis Chart
Orbit Inclination Analysis Chart
Orbit Comprehensive Analysis Chart
View Comprehensive Chart
Conjunction Data List
Event ID Objects TCA Miss Dist (km) Collision Risk Probability Collision Risk Index (CRI) Action
CDM_260903-222003-644104-859621
2026-09-03T
22:20:52+0000
2.206 km
极远距离
2.013968E-6 低风险 0.41
CDM_260905-053004-859606-821221
2026-09-05T
05:30:21+0000
2.326 km
极远距离
1.754684E-6 低风险 0.4
CDM_260904-033804-859606-764921
2026-09-04T
03:38:50+0000
2.650 km
极远距离
1.439906E-6 低风险 0.38
CDM_260905-085104-859606-788021
2026-09-05T
08:51:21+0000
2.954 km
极远距离
1.348409E-6 低风险 0.38
CDM_260905-044604-859606-773521
2026-09-05T
04:46:07+0000
2.639 km
极远距离
1.328851E-6 低风险 0.37
CDM_260903-221404-859606-760721
2026-09-03T
22:14:39+0000
2.971 km
极远距离
1.108458E-6 低风险 0.36